Weather History for Pauls Valley, OK

Change the Weather History Date:

Friday, April 19, 2013

  Actual Average (KADH) Record (KADH)
Temperature  
Mean Temperature 46 °F -  
Max Temperature 60 °F 74 °F 94 °F (1925)
Min Temperature 32 °F 52 °F 29 °F (1953)
Degree Days  
Heating Degree Days 19    
Moisture  
Dew Point 30 °F    
Average Humidity 58    
Maximum Humidity 93    
Minimum Humidity 31    
Precipitation  
Precipitation 0.00 in - - ()
Sea Level Pressure  
Sea Level Pressure 30.16 in    
Wind  
Wind Speed 7 mph (WNW)    
Max Wind Speed 18 mph    
Max Gust Speed 22 mph    
Visibility 10 miles    
Events      
Averages and records for this station are not official NWS values.
T = Trace of Precipitation, MM = Missing Value Source: NWS Daily Summary

Daily Weather History Graph

Daily Weather History Graph

Search for Another Location

Airport:

Trip Planner

Search our weather history database for the weather conditions in past years. The results will help you decide how hot, cold, wet, or windy it might be!

Date:

Astronomy

Apr. 19, 2013 Rise Set
Actual Time 6:51 AM CDT 8:04 PM CDT
Civil Twilight 6:25 AM CDT 8:30 PM CDT
Nautical Twilight 5:54 AM CDT 9:02 PM CDT
Astronomical Twilight 5:22 AM CDT 9:34 PM CDT
Moon 2:04 PM CDT (4/19) 2:52 AM CDT (4/19)
Length of Visible Light 14h 05m
Length of Day
13h 12m
First Quarter, 62% of the Moon is Illuminated
Apr 19
First Quarter
Apr 25
Full
May 2
Last Quarter
May 9
New
May 17
First Quarter

Hourly Weather History & Observations

Time (CDT) Temp. Windchill Dew Point Humidity Pressure Visibility Wind Dir Wind Speed Gust Speed Precip Events Conditions
12:15 AM 35.6 °F 32.8 °F 32.0 °F 87% 30.15 in 10.0 mi WNW 3.5 mph - N/A   Unknown
12:35 AM 35.6 °F 32.8 °F 30.2 °F 81% 30.15 in 10.0 mi WNW 3.5 mph - N/A   Unknown
12:55 AM 35.6 °F 31.7 °F 30.2 °F 81% 30.15 in 10.0 mi WNW 4.6 mph - N/A   Unknown
1:15 AM 35.6 °F 32.8 °F 30.2 °F 81% 30.15 in 10.0 mi WNW 3.5 mph - N/A   Unknown
1:35 AM 35.6 °F 31.7 °F 30.2 °F 81% 30.16 in 10.0 mi WNW 4.6 mph - N/A   Unknown
1:55 AM 33.8 °F 29.6 °F 30.2 °F 87% 30.16 in 10.0 mi WNW 4.6 mph - N/A   Unknown
2:15 AM 33.8 °F 29.6 °F 28.4 °F 81% 30.15 in 10.0 mi NW 4.6 mph - N/A   Unknown
2:35 AM 33.8 °F 30.8 °F 28.4 °F 81% 30.15 in 10.0 mi WNW 3.5 mph - N/A   Unknown
2:55 AM 33.8 °F 30.8 °F 28.4 °F 81% 30.15 in 10.0 mi WNW 3.5 mph - N/A   Unknown
3:15 AM 33.8 °F 30.8 °F 28.4 °F 81% 30.14 in 10.0 mi WNW 3.5 mph - N/A   Unknown
3:35 AM 33.8 °F 29.6 °F 28.4 °F 81% 30.15 in 10.0 mi West 4.6 mph - N/A   Unknown
3:55 AM 32.0 °F 27.5 °F 30.2 °F 93% 30.15 in 10.0 mi West 4.6 mph - N/A   Unknown
4:15 AM 32.0 °F 27.5 °F 30.2 °F 93% 30.15 in 10.0 mi West 4.6 mph - N/A   Unknown
4:35 AM 32.0 °F 27.5 °F 28.4 °F 87% 30.15 in 10.0 mi West 4.6 mph - N/A   Unknown
4:55 AM 32.0 °F 27.5 °F 28.4 °F 87% 30.16 in 10.0 mi West 4.6 mph - N/A   Unknown
5:15 AM 32.0 °F 27.5 °F 28.4 °F 87% 30.16 in 10.0 mi WNW 4.6 mph - N/A   Unknown
5:55 AM 32.0 °F 26.4 °F 28.4 °F 87% 30.18 in 10.0 mi WNW 5.8 mph - N/A   Unknown
6:15 AM 32.0 °F 27.5 °F 28.4 °F 87% 30.19 in 10.0 mi West 4.6 mph - N/A   Unknown
6:35 AM 32.0 °F 28.7 °F 28.4 °F 87% 30.20 in 10.0 mi West 3.5 mph - N/A   Unknown
6:55 AM 32.0 °F 26.4 °F 28.4 °F 87% 30.21 in 10.0 mi WNW 5.8 mph - N/A   Unknown
7:15 AM 32.0 °F 25.6 °F 28.4 °F 87% 30.21 in 10.0 mi WNW 6.9 mph - N/A   Unknown
7:35 AM 32.0 °F 24.8 °F 28.4 °F 87% 30.21 in 10.0 mi WNW 8.1 mph - N/A   Unknown
7:55 AM 33.8 °F 25.8 °F 28.4 °F 81% 30.22 in 10.0 mi NW 10.4 mph - N/A   Unknown
8:15 AM 35.6 °F 29.2 °F 28.4 °F 75% 30.22 in 10.0 mi WNW 8.1 mph - N/A   Unknown
8:35 AM 37.4 °F 30.8 °F 30.2 °F 75% 30.23 in 10.0 mi WNW 9.2 mph - N/A   Unknown
8:55 AM 39.2 °F 32.0 °F 28.4 °F 65% 30.23 in 10.0 mi NW 11.5 mph - N/A   Unknown
9:15 AM 41.0 °F 33.5 °F 28.4 °F 61% 30.23 in 10.0 mi NW 13.8 mph - N/A   Unknown
9:55 AM 42.8 °F 36.6 °F 28.4 °F 57% 30.24 in 10.0 mi NW 11.5 mph 18.4 mph N/A   Unknown
10:15 AM 42.8 °F 36.6 °F 28.4 °F 57% 30.24 in 10.0 mi NW 11.5 mph 18.4 mph N/A   Unknown
10:35 AM 44.6 °F 38.4 °F 28.4 °F 53% 30.24 in 10.0 mi WNW 12.7 mph 19.6 mph N/A   Unknown
10:55 AM 46.4 °F 39.2 °F 24.8 °F 43% 30.24 in 10.0 mi NW 18.4 mph 21.9 mph N/A   Unknown
11:15 AM 46.4 °F 40.1 °F 26.6 °F 46% 30.24 in 10.0 mi WNW 15.0 mph 18.4 mph N/A   Unknown
11:35 AM 48.2 °F - 26.6 °F 43% 30.24 in 10.0 mi WNW 9.2 mph - N/A   Unknown
11:55 AM 48.2 °F - 24.8 °F 40% 30.23 in 10.0 mi NW 15.0 mph 20.7 mph N/A   Unknown
12:15 PM 50.0 °F - 26.6 °F 40% 30.23 in 10.0 mi WNW 10.4 mph 16.1 mph N/A   Unknown
12:35 PM 51.8 °F - 26.6 °F 38% 30.23 in 10.0 mi WNW 12.7 mph 19.6 mph N/A   Unknown
12:55 PM 51.8 °F - 26.6 °F 38% 30.21 in 10.0 mi WNW 8.1 mph 17.3 mph N/A   Unknown
1:15 PM 53.6 °F - 26.6 °F 35% 30.20 in 10.0 mi NW 10.4 mph 16.1 mph N/A   Unknown
1:35 PM 53.6 °F - 28.4 °F 38% 30.20 in 10.0 mi NW 12.7 mph 21.9 mph N/A   Unknown
1:55 PM 53.6 °F - 28.4 °F 38% 30.19 in 10.0 mi NW 9.2 mph 20.7 mph N/A   Unknown
2:15 PM 55.4 °F - 30.2 °F 38% 30.18 in 10.0 mi NNW 11.5 mph 16.1 mph N/A   Unknown
2:35 PM 57.2 °F - 30.2 °F 36% 30.17 in 10.0 mi WNW 15.0 mph 20.7 mph N/A   Unknown
2:55 PM 57.2 °F - 32.0 °F 38% 30.16 in 10.0 mi NNW 9.2 mph - N/A   Unknown
3:15 PM 59.0 °F - 30.2 °F 34% 30.16 in 10.0 mi West 11.5 mph 19.6 mph N/A   Unknown
3:35 PM 59.0 °F - 30.2 °F 34% 30.16 in 10.0 mi West 12.7 mph 17.3 mph N/A   Unknown
3:55 PM 59.0 °F - 32.0 °F 36% 30.15 in 10.0 mi WNW 12.7 mph 17.3 mph N/A   Unknown
4:15 PM 60.8 °F - 32.0 °F 34% 30.13 in 10.0 mi NW 12.7 mph 17.3 mph N/A   Unknown
4:35 PM 60.8 °F - 30.2 °F 31% 30.13 in 10.0 mi WNW 15.0 mph 18.4 mph N/A   Unknown
4:55 PM 60.8 °F - 30.2 °F 31% 30.12 in 10.0 mi WNW 11.5 mph 19.6 mph N/A   Unknown
5:15 PM 60.8 °F - 32.0 °F 34% 30.12 in 10.0 mi WNW 10.4 mph 17.3 mph N/A   Unknown
5:35 PM 60.8 °F - 32.0 °F 34% 30.11 in 10.0 mi West 10.4 mph - N/A   Unknown
5:55 PM 60.8 °F - 30.2 °F 31% 30.11 in 10.0 mi West 9.2 mph - N/A   Unknown
6:15 PM 60.8 °F - 30.2 °F 31% 30.11 in 10.0 mi West 5.8 mph - N/A   Unknown
6:35 PM 60.8 °F - 30.2 °F 31% 30.11 in 10.0 mi WNW 4.6 mph - N/A   Unknown
6:55 PM 60.8 °F - 32.0 °F 34% 30.11 in 10.0 mi West 3.5 mph - N/A   Unknown
7:15 PM 59.0 °F - 32.0 °F 36% 30.10 in 10.0 mi Calm Calm - N/A   Unknown
7:35 PM 59.0 °F - 32.0 °F 36% 30.10 in 10.0 mi SW 6.9 mph - N/A   Unknown
7:55 PM 55.4 °F - 32.0 °F 41% 30.11 in 10.0 mi SSW 4.6 mph - N/A   Unknown
8:15 PM 55.4 °F - 32.0 °F 41% 30.10 in 10.0 mi South 4.6 mph - N/A   Unknown
8:35 PM 53.6 °F - 32.0 °F 44% 30.11 in 10.0 mi South 5.8 mph - N/A   Unknown
8:55 PM 51.8 °F - 32.0 °F 47% 30.11 in 10.0 mi South 4.6 mph - N/A   Unknown
9:15 PM 50.0 °F - 32.0 °F 50% 30.11 in 10.0 mi South 5.8 mph - N/A   Unknown
9:35 PM 50.0 °F - 32.0 °F 50% 30.11 in 10.0 mi South 4.6 mph - N/A   Unknown
9:55 PM 50.0 °F - 32.0 °F 50% 30.12 in 10.0 mi South 5.8 mph - N/A   Unknown
10:15 PM 48.2 °F - 32.0 °F 54% 30.12 in 10.0 mi South 5.8 mph - N/A   Unknown
10:35 PM 48.2 °F - 32.0 °F 54% 30.13 in 10.0 mi South 5.8 mph - N/A   Unknown
10:55 PM 46.4 °F 42.9 °F 32.0 °F 57% 30.13 in 10.0 mi South 6.9 mph - N/A   Unknown
11:15 PM 46.4 °F 42.9 °F 32.0 °F 57% 30.12 in 10.0 mi South 6.9 mph - N/A   Unknown
11:35 PM 46.4 °F 43.5 °F 32.0 °F 57% 30.12 in 10.0 mi SSE 5.8 mph - N/A   Unknown
11:55 PM 46.4 °F 42.9 °F 32.0 °F 57% 30.11 in 10.0 mi SSE 6.9 mph - N/A   Unknown